Location: Dannhausen
(51.8650°N, 10.1026°E)
Time: 06:21:10
(UTC+00:00)

Cosmos 540 Rocket - Visible Passes

Search period start: 11 August 2020 00:00
Search period end: 21 August 2020 00:00
Orbit: 740 x 754 km, 74.1° (Epoch: 10 August)

Date Brightness Start Highest point End Pass type
(mag) Time Alt. Az. Time Alt. Az. Time Alt. Az.
11 Aug 5.3 19:26:30 10° N 19:30:13 19° NE 19:33:56 10° E visible
11 Aug 3.4 21:07:26 10° NNW 21:12:39 84° ENE 21:15:09 32° SSE visible
11 Aug 5.4 22:50:19 10° NW 22:53:34 17° W 22:54:58 15° WSW visible
12 Aug 3.9 20:24:07 10° NNW 20:29:10 50° ENE 20:32:32 20° SE visible
12 Aug 4.8 22:06:06 10° NW 22:10:33 30° W 22:12:21 24° SW visible
13 Aug 4.6 19:40:55 10° N 19:45:31 31° NE 19:49:56 11° ESE visible
13 Aug 4.0 21:22:22 10° NNW 21:27:23 52° WSW 21:29:45 29° SSW visible
14 Aug 3.4 20:38:51 10° NNW 20:44:05 89° SW 20:47:11 25° SSE visible
14 Aug 5.6 22:21:57 10° WNW 22:24:55 15° W 22:27:00 12° WSW visible
15 Aug 3.8 19:55:30 10° NNW 20:00:36 54° ENE 20:04:39 16° SE visible
15 Aug 5.0 21:37:36 10° NW 21:41:55 27° W 21:44:28 18° SW visible
16 Aug 4.4 19:12:17 10° NNW 19:16:59 33° NE 19:21:40 10° ESE visible
16 Aug 4.2 20:53:49 10° NW 20:58:47 47° WSW 21:01:58 21° S visible
17 Aug 3.5 20:10:16 10° NNW 20:15:29 82° WSW 20:19:30 17° SSE visible
17 Aug 5.8 21:53:38 10° WNW 21:56:15 14° W 21:58:51 10° WSW visible
18 Aug 3.7 19:26:54 10° NNW 19:32:02 59° ENE 19:37:04 10° SE visible
18 Aug 5.2 21:09:07 10° NW 21:13:16 25° W 21:16:54 12° SSW visible
19 Aug 4.4 20:25:16 10° NW 20:30:09 43° WSW 20:34:31 13° S visible
20 Aug 3.6 19:41:42 10° NNW 19:46:53 76° WSW 19:52:03 10° SSE visible
20 Aug 6.0 21:25:24 10° WNW 21:27:34 13° W 21:29:45 10° WSW visible
